SB KEPS @ AMSAT $ORB14324.O Orbital Elements 14324.OSCAR
HR AMSAT ORBITAL ELEMENTS FOR OSCAR SATELLITES FROM WA5QGD FORT WORTH,TX November 20, 2014 BID: ORB14324.O TO ALL RADIO AMATEURS BT
Satellite: AO-07 Catalog number: 07530 Epoch time: 14324.16830031 Element set: 122 Inclination: 101.4933 deg RA of node: 300.9733 deg Eccentricity: 0.0011995 Arg of perigee: 352.3595 deg Mean anomaly: 138.4967 deg Mean motion: 12.53609343 rev/day Decay rate: -5.3e-07 rev/day^2 Epoch rev: 83106 Checksum: 278
Satellite: FO-29 Catalog number: 24278 Epoch time: 14323.88194395 Element set: 521 Inclination: 098.5171 deg RA of node: 316.2655 deg Eccentricity: 0.0349507 Arg of perigee: 253.5978 deg Mean anomaly: 165.9043 deg Mean motion: 13.53036804 rev/day Decay rate: -2.0e-08 rev/day^2 Epoch rev: 90172 Checksum: 323
Satellite: SO-33 Catalog number: 25509 Epoch time: 14323.51281520 Element set: 884 Inclination: 031.4325 deg RA of node: 000.1919 deg Eccentricity: 0.0348710 Arg of perigee: 035.3788 deg Mean anomaly: 075.9914 deg Mean motion: 14.29746358 rev/day Decay rate: 5.69e-06 rev/day^2 Epoch rev: 83939 Checksum: 325
Satellite: RS-22 Catalog number: 27939 Epoch time: 14324.60597873 Element set: 57 Inclination: 097.8179 deg RA of node: 131.1244 deg Eccentricity: 0.0012953 Arg of perigee: 335.1415 deg Mean anomaly: 024.9177 deg Mean motion: 14.65528124 rev/day Decay rate: 1.960e-05 rev/day^2 Epoch rev: 59563 Checksum: 325
Satellite: HO-68 Catalog number: 36122 Epoch time: 14324.75903660 Element set: 136 Inclination: 100.2287 deg RA of node: 011.7148 deg Eccentricity: 0.0007072 Arg of perigee: 236.4620 deg Mean anomaly: 123.5817 deg Mean motion: 13.16320372 rev/day Decay rate: -6.0e-07 rev/day^2 Epoch rev: 23703 Checksum: 257
Satellite: AO-73 Catalog number: 39444 Epoch time: 14323.80493097 Element set: 310 Inclination: 097.7600 deg RA of node: 029.0835 deg Eccentricity: 0.0062507 Arg of perigee: 097.7063 deg Mean anomaly: 263.1252 deg Mean motion: 14.79051142 rev/day Decay rate: 4.379e-05 rev/day^2 Epoch rev: 5246 Checksum: 303
Satellite: EO-79 Catalog number: 40025 Epoch time: 14324.69663317 Element set: 455 Inclination: 097.9638 deg RA of node: 219.5849 deg Eccentricity: 0.0014192 Arg of perigee: 140.5664 deg Mean anomaly: 219.6597 deg Mean motion: 14.85918688 rev/day Decay rate: 4.691e-05 rev/day^2 Epoch rev: 2282 Checksum: 359
/EX SB KEPS @ AMSAT $ORB14324.D Orbital Elements 14324.MICROS
HR AMSAT ORBITAL ELEMENTS FOR THE MICROSATS FROM WA5QGD FORT WORTH,TX November 20, 2014 BID: ORB14324.D TO ALL RADIO AMATEURS BT
Satellite: UO-11 Catalog number: 14781 Epoch time: 14323.75612572 Element set: 668 Inclination: 097.8326 deg RA of node: 020.7026 deg Eccentricity: 0.0009226 Arg of perigee: 042.9191 deg Mean anomaly: 317.2740 deg Mean motion: 14.81913086 rev/day Decay rate: 1.216e-05 rev/day^2 Epoch rev: 65100 Checksum: 284
Satellite: AO-16 Catalog number: 20439 Epoch time: 14324.37404016 Element set: 175 Inclination: 098.5221 deg RA of node: 258.8618 deg Eccentricity: 0.0011814 Arg of perigee: 061.8990 deg Mean anomaly: 052.5851 deg Mean motion: 14.32431329 rev/day Decay rate: 3.10e-06 rev/day^2 Epoch rev: 29684 Checksum: 291
Satellite: LO-19 Catalog number: 20442 Epoch time: 14323.82714190 Element set: 109 Inclination: 098.4930 deg RA of node: 258.5108 deg Eccentricity: 0.0012610 Arg of perigee: 052.4619 deg Mean anomaly: 307.7709 deg Mean motion: 14.32628967 rev/day Decay rate: 2.70e-06 rev/day^2 Epoch rev: 29696 Checksum: 308
Satellite: AO-27 Catalog number: 22825 Epoch time: 14324.81134718 Element set: 823 Inclination: 098.6824 deg RA of node: 270.1922 deg Eccentricity: 0.0008329 Arg of perigee: 191.4786 deg Mean anomaly: 227.8904 deg Mean motion: 14.29784893 rev/day Decay rate: 2.54e-06 rev/day^2 Epoch rev: 10316 Checksum: 325
Satellite: IO-26 Catalog number: 22826 Epoch time: 14324.83196277 Element set: 580 Inclination: 098.6765 deg RA of node: 270.4083 deg Eccentricity: 0.0009021 Arg of perigee: 184.1306 deg Mean anomaly: 175.9803 deg Mean motion: 14.30091874 rev/day Decay rate: 2.87e-06 rev/day^2 Epoch rev: 10330 Checksum: 302
Satellite: GO-32 Catalog number: 25397 Epoch time: 14324.14931751 Element set: 501 Inclination: 098.4920 deg RA of node: 276.4818 deg Eccentricity: 0.0001321 Arg of perigee: 161.3242 deg Mean anomaly: 319.7041 deg Mean motion: 14.23485192 rev/day Decay rate: 1.50e-06 rev/day^2 Epoch rev: 85005 Checksum: 274
Satellite: NO-44 Catalog number: 26931 Epoch time: 14323.85715331 Element set: 755 Inclination: 067.0525 deg RA of node: 357.0137 deg Eccentricity: 0.0007527 Arg of perigee: 272.0230 deg Mean anomaly: 088.0008 deg Mean motion: 14.30195671 rev/day Decay rate: 2.04e-06 rev/day^2 Epoch rev: 68586 Checksum: 290
Satellite: SO-50 Catalog number: 27607 Epoch time: 14324.81840214 Element set: 579 Inclination: 064.5559 deg RA of node: 114.7590 deg Eccentricity: 0.0066214 Arg of perigee: 330.9543 deg Mean anomaly: 028.7880 deg Mean motion: 14.74142435 rev/day Decay rate: 1.560e-05 rev/day^2 Epoch rev: 64056 Checksum: 307
Satellite: CO-55 Catalog number: 27844 Epoch time: 14324.02712377 Element set: 73 Inclination: 098.6974 deg RA of node: 330.5590 deg Eccentricity: 0.0009946 Arg of perigee: 179.3625 deg Mean anomaly: 201.1284 deg Mean motion: 14.21623113 rev/day Decay rate: 4.12e-06 rev/day^2 Epoch rev: 59072 Checksum: 299
Satellite: CO-57 Catalog number: 27848 Epoch time: 14324.86076569 Element set: 15 Inclination: 098.7072 deg RA of node: 331.1770 deg Eccentricity: 0.0009788 Arg of perigee: 183.6252 deg Mean anomaly: 296.5487 deg Mean motion: 14.21295876 rev/day Decay rate: 3.83e-06 rev/day^2 Epoch rev: 59075 Checksum: 358
Satellite: AO-51 Catalog number: 28375 Epoch time: 14324.80853298 Element set: 995 Inclination: 098.2701 deg RA of node: 266.5250 deg Eccentricity: 0.0082013 Arg of perigee: 238.4952 deg Mean anomaly: 120.8206 deg Mean motion: 14.41503961 rev/day Decay rate: 4.12e-06 rev/day^2 Epoch rev: 54646 Checksum: 306
Satellite: CP3 Catalog number: 31129 Epoch time: 14324.83532992 Element set: 903 Inclination: 097.9535 deg RA of node: 295.0718 deg Eccentricity: 0.0096295 Arg of perigee: 242.6348 deg Mean anomaly: 179.8965 deg Mean motion: 14.55156084 rev/day Decay rate: 2.105e-05 rev/day^2 Epoch rev: 40281 Checksum: 331
Satellite: CO-65 Catalog number: 32785 Epoch time: 14323.83215884 Element set: 119 Inclination: 097.6803 deg RA of node: 009.8868 deg Eccentricity: 0.0014545 Arg of perigee: 042.3719 deg Mean anomaly: 045.6418 deg Mean motion: 14.85891292 rev/day Decay rate: 3.776e-05 rev/day^2 Epoch rev: 35513 Checksum: 342
Satellite: PRISM Catalog number: 33493 Epoch time: 14324.75401167 Element set: 502 Inclination: 098.2519 deg RA of node: 147.2628 deg Eccentricity: 0.0016451 Arg of perigee: 295.2072 deg Mean anomaly: 064.7455 deg Mean motion: 14.90860135 rev/day Decay rate: 8.888e-05 rev/day^2 Epoch rev: 31549 Checksum: 312
Satellite: SOHLA-1 Catalog number: 33496 Epoch time: 14324.86398557 Element set: 517 Inclination: 098.1884 deg RA of node: 086.3710 deg Eccentricity: 0.0007563 Arg of perigee: 105.6402 deg Mean anomaly: 012.5356 deg Mean motion: 14.71026610 rev/day Decay rate: 9.65e-06 rev/day^2 Epoch rev: 31254 Checksum: 301
Satellite: TISAT-1 Catalog number: 36799 Epoch time: 14324.85891405 Element set: 721 Inclination: 098.0190 deg RA of node: 058.1129 deg Eccentricity: 0.0013804 Arg of perigee: 166.4432 deg Mean anomaly: 318.0358 deg Mean motion: 14.86719839 rev/day Decay rate: 6.333e-05 rev/day^2 Epoch rev: 23598 Checksum: 329
Satellite: STUDSAT Catalog number: 36801 Epoch time: 14324.87157550 Element set: 937 Inclination: 098.0519 deg RA of node: 069.6479 deg Eccentricity: 0.0005635 Arg of perigee: 132.6583 deg Mean anomaly: 339.8527 deg Mean motion: 15.01570587 rev/day Decay rate: 3.5184e-04 rev/day^2 Epoch rev: 23659 Checksum: 338
Satellite: ALMASAT-1 Catalog number: 38078 Epoch time: 14322.57292693 Element set: 213 Inclination: 069.4659 deg RA of node: 044.5016 deg Eccentricity: 0.0552846 Arg of perigee: 186.0636 deg Mean anomaly: 173.3623 deg Mean motion: 14.60630964 rev/day Decay rate: 7.3063e-04 rev/day^2 Epoch rev: 14408 Checksum: 315
Satellite: XATCOBEO Catalog number: 38082 Epoch time: 14243.34478676 Element set: 563 Inclination: 069.3815 deg RA of node: 097.0364 deg Eccentricity: 0.0033293 Arg of perigee: 225.1799 deg Mean anomaly: 135.4582 deg Mean motion: 16.41261006 rev/day Decay rate: 1.3583328e-01 rev/day^2 Epoch rev: 13623 Checksum: 317
Satellite: CUBEBUG-1 Catalog number: 39153 Epoch time: 14324.75215287 Element set: 654 Inclination: 098.0343 deg RA of node: 044.6990 deg Eccentricity: 0.0017374 Arg of perigee: 202.5864 deg Mean anomaly: 157.4584 deg Mean motion: 14.78281915 rev/day Decay rate: 4.059e-05 rev/day^2 Epoch rev: 8467 Checksum: 328
Satellite: ESTCUBE-1 Catalog number: 39161 Epoch time: 14324.76151089 Element set: 679 Inclination: 098.0864 deg RA of node: 044.4570 deg Eccentricity: 0.0008505 Arg of perigee: 257.0090 deg Mean anomaly: 103.0162 deg Mean motion: 14.70438203 rev/day Decay rate: 2.620e-05 rev/day^2 Epoch rev: 8260 Checksum: 274
Satellite: DUCHIFAT-1 Catalog number: 40021 Epoch time: 14324.67741718 Element set: 455 Inclination: 097.9663 deg RA of node: 219.6447 deg Eccentricity: 0.0014418 Arg of perigee: 140.6699 deg Mean anomaly: 219.5634 deg Mean motion: 14.86271173 rev/day Decay rate: 6.111e-05 rev/day^2 Epoch rev: 2281 Checksum: 304
Satellite: NANOSATCBR1 Catalog number: 40024 Epoch time: 14324.69030694 Element set: 448 Inclination: 097.9642 deg RA of node: 219.5970 deg Eccentricity: 0.0013967 Arg of perigee: 138.4998 deg Mean anomaly: 221.7308 deg Mean motion: 14.86076681 rev/day Decay rate: 5.507e-05 rev/day^2 Epoch rev: 2281 Checksum: 324
